User: anonymous   Login
Location: Astronight Observatory
(42.6003°N, 71.2981°W)
Time: 12:28:59
(UTC-04:00)
Language:

DELTA 2 R/B (1) - Orbit

View from above orbital plane
View from above orbital plane
View from above satellite
View from above satellite

Ground track
Ground track

The orbit data is extracted from the following two-line orbital elements,

1 27665U 03005C   16209.79185955 -.00000017  00000-0  27004-4 0  9997
2 27665  39.5770 321.9870 0010043 317.9193 176.5771 14.28413659704536
Epoch (UTC): 27 July 2016 19:00:16
Eccentricity: 0.0010043
inclination: 39.5770°
perigee height: 790 km
apogee height: 804 km
right ascension of ascending node: 321.9870°
argument of perigee: 317.9193°
revolutions per day: 14.28413659
mean anomaly at epoch: 176.5771°
orbit number at epoch: 70453

The dashed part of the orbit path shows where the satellite is in the earth's shadow,  

DLR